THORAD AGENA D DEB, 4934

Orbit data source: Space-Track

THORAD AGENA D DEB, 4934 is space debris in SSO originally from a launch on Wed, 08 Apr 1970 UTC launched from the Air Force Western Test Range (AFWTR). Debris objects in space refer to the collection of defunct objects orbiting the Earth. Examples of debris include non-operational satellites, rocket bodies, and fragments generated from explosions, collisions, or faulty payload assembly.

Loading next visibility...
Identifier
4934, 1970-025GA
Orbit
SSO
Country
Flag of USUS
Related business
Manufacturer
Unknown
Mission
Spacecraft
Bus & Motor
Unknown
Mass
Unknown
Launch date (UTC)
1970-04-08 (56 years ago)
Launch vehicle
Unknown
Launch site
Air Force Western Test Range (AFWTR)
Object type
Payload
Rocket body
Debris
Shape & HBR
Unknown shape, 0.1 m
Radar Cross Section
Small (<0.1 m²)

Expand to show TLE details & history
Last TLE update: 1 day ago

TLE from 1 day ago
0 THORAD AGENA D DEB
1 04934U 70025GA  26256.31489463  .00000385  00000-0  45112-3 0  9995
2 04934 100.0309  26.6697 0005191 320.5437  69.0575 13.75517419808495
Epoch: 2026-09-13T07:33Z
TLE epoch observation values (Epoch: 2026-09-13T07:33:26.896Z)
Latitude
29.20748°
Longitude
-84.64918°
Altitude
981.998 km
Speed
7.364 km/s
True Right ascension
01h 24m 05s
True Declination
29° 03' 56"
Sunlit
Object was in full shadow at epoch
Visualization orbit readout
Latitude
Unknown
Longitude
Unknown
Altitude
Unknown
Speed
Unknown
Apparent Right ascension
Unknown
Apparent Declination
Unknown
Sunlit
N/A
Visualization observer readout
Local Sidereal Time
03:32:01
Azimuth
Unknown
Elevation
Unknown
Doppler factor
Unknown
Orbital elements
Apogee altitude
980.932 km
Perigee altitude
973.296 km
Semi-major axis
7,355.251 km
Eccentricity
0.00052
Inclination
100.0309°
RAAN
26.6697°
Arg. of periapsis
320.5437°
True anomaly
69.11307°
Mean anomaly
69.0575°
Eccentric anomaly
69.08528°
Mean motion
3.4407 °/min
Orbital period
104.63 mins
BSTAR
0.00045112
Loading maneuver chart data...
Computing Atmospheric mass density...

Documentation

Showing up to 5 results
|